Regional Weather Roundup
Issued by NWS

Home | Current Version | Previous Version | Text Only | Print | Product List | Glossary On
Versions: 1 2 3 4 5 6 7 8 9 10 11 12 13 14 15 16 17 18 19 20 21 22 23 24 25 26 27 28 29 30 31 32 33 34 35 36 37 38 39 40 41 42 43 44 45 46 47 48 49 50
000
ASUS44 KJAN 270210
RWRMS

MISSISSIPPI HOURLY WEATHER ROUNDUP
NATIONAL WEATHER SERVICE JACKSON MS
800 PM CST FRI DEC 26 2014

NOTE: "FAIR: INDICATES FEW OR NO CLOUDS BELOW 12,000 FEET WITH NO
SIGNIFICANT WEATHER AND/OR OBSTRUCTIONS TO VISIBILITY.

MSZ001>002-007>008-010>013-018>021-025>028-034>036-270300-
NORTHWEST MISSISSIPPI

CITY           SKY/WX    TMP DP  RH WIND       PRES   REMARKS
CLARKSDALE     CLOUDY    52  48  87 SE9       30.16S
CLEVELAND      CLOUDY    55  51  87 SE12      30.13F
GREENWOOD      CLOUDY    55  47  74 SE14      30.15F
GREENVILLE     CLOUDY    56  50  80 SE10      30.12F
GRENADA        CLOUDY    50  46  87 CALM      30.18S
OLIVE BRANCH   MOCLDY    48  46  93 S12       30.16R
OXFORD         MOCLDY    48  41  76 SE9       30.19F
TUNICA         CLOUDY    50  45  81 SE16      30.15S
$$

MSZ003>006-009-014>017-022>024-029>033-037>039-270300-
NORTHEAST MISSISSIPPI

CITY           SKY/WX    TMP DP  RH WIND       PRES   REMARKS
COLUMBUS AFB   PTCLDY    49  44  83 SE9       30.21F
CORINTH        FAIR      46  41  81 SE7       30.19R
GOLDN TRIANGLE MOCLDY    52  43  71 SE12      30.20F
STARKVILLE     MOCLDY    50  45  81 SE10      30.21S
TUPELO         MOCLDY    50  42  74 MISG      30.21R
$$

MSZ040-058-270300-
CENTRAL MISSISSIPPI

CITY           SKY/WX    TMP DP  RH WIND       PRES   REMARKS
JACKSON INTL   CLOUDY    56  50  80 E9        30.17F
JACKSON HAWKNS CLOUDY    55  49  80 SE12      30.16F
MERIDIAN KEY   PTCLDY    52  44  74 E5        30.23R
MERIDIAN NAS   MOCLDY    50  44  80 CALM      30.24R
RAYMOND        FAIR      55  50  82 E9G17     30.16R
VICKSBURG      CLOUDY    56  52  86 SE10      30.14F
$$

MSZ059>079-270300-
SOUTH MISSISSIPPI

CITY           SKY/WX    TMP DP  RH WIND       PRES   REMARKS
HATTIESBURG    CLOUDY    58  50  75 E8        30.20F
MCCOMB         CLOUDY    60  53  77 SE6       30.15S
NATCHEZ        CLOUDY    59  54  82 SE14      30.13S
PINE BELT      CLOUDY    55  46  71 E6        30.21F
$$

MSZ080>082-270300-
COASTAL MISSISSIPPI

CITY           SKY/WX    TMP DP  RH WIND       PRES   REMARKS
BILOXI         MOCLDY    61  54  77 E12       30.19S
PASCAGOULA     CLOUDY    60  52  74 E10       30.22F
GULFPORT         N/A     61  54  77 E15G21    30.19S
$$



USA.gov is the U.S. government's official web portal to all federal, state and local government web resources and services.